ATLAS 5 CENTAUR DEB, 52971

Orbit data source: Space-Track

ATLAS 5 CENTAUR DEB, 52971 is space debris in HEO originally from a launch on Wed, 17 Oct 2018 UTC launched from the Air Force Eastern Test Range (AFETR). Debris objects in space refer to the collection of defunct objects orbiting the Earth. Examples of debris include non-operational satellites, rocket bodies, and fragments generated from explosions, collisions, or faulty payload assembly.

Loading next visibility...
Identifier
52971, 2018-079GV
Orbit
HEO
Country
Flag of USUS
Related business
Flag of USUnited Launch Alliance/Lockheed Martin (US)
Manufacturer
ULA Decatur
Mission
Spacecraft
Bus & Motor
Unknown
Mass
Unknown
Launch date (UTC)
2018-10-17 (7 years ago)
Launch vehicle
Unknown
Launch site
Air Force Eastern Test Range (AFETR)
Object type
Payload
Rocket body
Debris
Shape & HBR
Unknown shape, 1.1 m
Radar Cross Section
RCS unknown

Expand to show TLE details & history
Last TLE update: 3 days ago

TLE from 3 days ago
0 ATLAS 5 CENTAUR DEB
1 52971U 18079GV  25292.43912844 -.00000097  00000-0  00000-0 0  9991
2 52971  12.7882  58.5074 4756071 278.7836  32.1935  1.82283819 26478
Epoch: 2025-10-19T10:32Z
TLE epoch observation values (Epoch: 2025-10-19T10:32:20.697Z)
Latitude
0.00001°
Longitude
-127.76417°
Altitude
14,016.861 km
Speed
5.001 km/s
True Right ascension
03h 53m 54s
True Declination
0° 00' 00"
Sunlit
Object was in daylight at epoch
Visualization orbit readout
Latitude
Unknown
Longitude
Unknown
Altitude
Unknown
Speed
Unknown
Apparent Right ascension
Unknown
Apparent Declination
Unknown
Sunlit
N/A
Visualization observer readout
Local Sidereal Time
10:06:22
Azimuth
Unknown
Elevation
Unknown
Doppler factor
Unknown
Orbital elements
Apogee altitude
35,395.914 km
Perigee altitude
8,467.289 km
Semi-major axis
28,309.738 km
Eccentricity
0.47561
Inclination
12.7882°
RAAN
58.5074°
Arg. of periapsis
278.7836°
True anomaly
81.44676°
Mean anomaly
32.1935°
Eccentric anomaly
54.33184°
Mean motion
0.45566 °/min
Orbital period
790.07 mins
BSTAR
0
Loading maneuver chart data...
Computing Atmospheric mass density...

Documentation

Showing up to 5 results
|